Regional Weather Roundup
Issued by NWS Sioux Falls, SD

Home | Current Version | Previous Version | Text Only | Print | Product List | Glossary Off
Versions: 1 2 3 4 5 6 7 8 9 10 11 12 13 14 15 16 17 18 19 20 21 22 23 24 25 26 27 28 29 30 31 32 33 34 35 36 37 38 39 40 41 42 43 44 45 46 47 48 49 50

000
ASUS43 KFSD 021702
RWRFSD

WEATHER ROUNDUP FOR SE SOUTH DAKOTA/SW MINNESOTA/NW IOWA
NATIONAL WEATHER SERVICE SIOUX FALLS SD
1200 PM CDT SUN AUG 02 2015

NOTE: "FAIR" INDICATES FEW OR NO CLOUDS BELOW 12,000 FEET WITH NO
SIGNIFICANT WEATHER AND OR OBSTRUCTIONS TO VISIBILITY.


SDZ038>040-050-052>070-021800-
SOUTHEAST SOUTH DAKOTA

CITY           SKY/WX    TMP DP  RH WIND       PRES   REMARKS
BROOKINGS      SUNNY     79  66  65 N18       29.84R
CHAMBERLAIN    SUNNY     81  64  55 N13       29.88R
HURON          SUNNY     78  62  57 N16       29.85R
MADISON        FAIR      77  68  73 N13       29.84R
MITCHELL       SUNNY     80  67  64 N14       29.84R
SIOUX FALLS    PTSUNNY   82  66  58 N10G17    29.81R
WINNER         FAIR      85  59  41 N12       29.90R
YANKTON        SUNNY     82  66  57 NW14      29.80S
$$

MNZ071-072-080-081-089-090-097-098-021800-
SOUTHWEST MINNESOTA

CITY           SKY/WX    TMP DP  RH WIND       PRES   REMARKS
FAIRMONT       SUNNY     84  63  48 W15G21    29.75R
JACKSON        MOSUNNY   82  63  51 NW14G23   29.79R
LUVERNE        SUNNY     81  64  57 N7        29.81R
MARSHALL       SUNNY     79  64  61 N14G22    29.79R
MONTEVIDEO     SUNNY     82  68  61 N16       29.78R
PIPESTONE      SUNNY     81  64  57 N10G16    29.82R
REDWOOD FALLS  SUNNY     82  66  58 NW14G22   29.73R
WINDOM         SUNNY     82  63  51 NW16G23   29.77R
WORTHINGTON    MOSUNNY   81  64  57 W12       29.80R
$$

IAZ001>003-012>014-020>022-031-032-NEZ013-014-SDZ071-021800-
NORTHWEST IOWA

CITY           SKY/WX    TMP DP  RH WIND       PRES   REMARKS
DENISON        SUNNY     82  73  74 SW9       29.80S
ESTHERVILLE    SUNNY     83  67  58 W13G22    29.77R
LE MARS        SUNNY     82  72  69 SW7       29.81R
ORANGE CITY    SUNNY     81  68  65 W13       29.81R
SIOUX CITY     NOT AVBL
SPENCER        MOSUNNY   86  69  56 W10       29.78S
STORM LAKE     SUNNY     82  73  74 SW10      29.81S
$$

ABBREVIATIONS USED IN REMARKS
   TC - TEMPERATURE IN CELSIUS
  WCI - WIND CHILL INDEX
   HX - HEAT INDEX
  VSB - VISIBILITY



USA.gov is the U.S. government's official web portal to all federal, state and local government web resources and services.